Showing default

SAOCOM 1-B, 46265

Orbit data source: Space-Track

SAOCOM 1-B, 46265 is a payload satellite owned by CONAE Tabanera (AR) in SSO that was launched on Sun, 30 Aug 2020 UTC via an FALCON 9 launch vehicle from the Air Force Eastern Test Range (AFETR). Payload-class satellites include a variety of spacecraft equipped with specific instruments for various scientific and technological missions. These include communications satellites like Starlink; space stations such as the ISS; scientific satellites like the Hubble; Earth observation satellites from companies like Planet Labs, Umbra, and HawkEye 360; GPS; miniature CubeSats for education and research; and military/defense satellites.

Loading next visibility...
Identifier
46265, 2020-059A
Orbit
SSO
Country
Flag of UnknownUnknown / ARGN
Related business
Manufacturer
INVAP
Mission
Operational Civil Radar Imaging
Bus & Motor
SAOCOM, Unknown motor
Mass
3,050 kg wet, ~2,700 kg dry
Launch date (UTC)
2020-08-30 (5 years ago)
Launch vehicle
FALCON 9
Launch site
Air Force Eastern Test Range (AFETR)
Object type
Payload
Rocket body
Debris
Shape & HBR
Cyl + 2 Pan, 10.0 m
Radar Cross Section
19.776 m², Large (>1 m²)

Expand to show TLE details & history
Last TLE update: 6 hours ago

TLE from 6 hours ago
0 SAOCOM 1-B
1 46265U 20059A   25355.14197292  .00000509  00000-0  70513-4 0  9998
2 46265  97.8833 178.5413 0001422  88.1346 272.0030 14.82145318287111
Epoch: 2025-12-21T03:24Z
TLE epoch observation values (Epoch: 2025-12-21T03:24:26.460Z)
Latitude
-0.00001°
Longitude
37.47238°
Altitude
625.551 km
Speed
7.546 km/s
True Right ascension
11h 54m 09s
True Declination
0° 00' 00"
Sunlit
Object was in daylight at epoch
Visualization orbit readout
Latitude
Unknown
Longitude
Unknown
Altitude
Unknown
Speed
Unknown
Apparent Right ascension
Unknown
Apparent Declination
Unknown
Sunlit
N/A
Visualization observer readout
Local Sidereal Time
08:21:44
Azimuth
Unknown
Elevation
Unknown
Doppler factor
Unknown
Orbital elements
Apogee altitude
620.593 km
Perigee altitude
618.603 km
Semi-major axis
6,997.735 km
Eccentricity
0.00014
Inclination
97.8833°
RAAN
178.5413°
Arg. of periapsis
88.1346°
True anomaly
271.98671°
Mean anomaly
272.003°
Eccentric anomaly
271.99486°
Mean motion
3.70772 °/min
Orbital period
97.09 mins
BSTAR
0.000070513
Loading maneuver chart data...
Computing Atmospheric mass density...
Loading historical data...
Loading historical data...
Loading historical data...
Loading historical data...
Loading historical data...
Loading historical data...
Loading historical data...
Other satellites on launch #59 in the year 2020 (2020-08-30 UTC)

Documentation

Showing up to 5 results
|